| time (UTC) | temp F | wind direction | speed knots | gust knots | rain 1hr in | rain 24hr in | rain mn in | humidity % | barometer mb |
| 20260504001028 | 57 | 213 | 6.1 | 9.6 | 0.00 | 0.00 | 0.00 | 51 | 1012.6 |
| 20260504000032 | 57 | 231 | 6.1 | 7.0 | 0.00 | 0.00 | 0.00 | 49 | 1012.6 |
| 20260503235019 | 57 | 217 | 6.1 | 7.8 | 0.00 | 0.00 | 0.00 | 49 | 1012.6 |
| 20260503234024 | 57 | 228 | 6.1 | 7.8 | 0.00 | 0.00 | 0.00 | 49 | 1012.6 |
| 20260503233027 | 58 | 228 | 9.6 | 11.3 | 0.00 | 0.00 | 0.00 | 48 | 1012.6 |
| 20260503232052 | 59 | 222 | 10.4 | 14.8 | 0.00 | 0.00 | 0.00 | 46 | 1012.7 |
| 20260503231018 | 59 | 236 | 7.8 | 9.6 | 0.00 | 0.00 | 0.00 | 45 | 1012.6 |
| 20260503230022 | 60 | 226 | 8.7 | 13.0 | 0.00 | 0.00 | 0.00 | 44 | 1012.6 |
| 20260503225026 | 60 | 223 | 7.8 | 9.6 | 0.00 | 0.00 | 0.00 | 44 | 1012.7 |
| 20260503224031 | 60 | 225 | 7.0 | 11.3 | 0.00 | 0.00 | 0.00 | 45 | 1012.8 |
| 20260503223016 | 59 | 233 | 11.3 | 14.8 | 0.00 | 0.00 | 0.00 | 45 | 1012.9 |
| 20260503222021 | 60 | 228 | 11.3 | 13.9 | 0.00 | 0.00 | 0.00 | 45 | 1012.9 |
| 20260503221025 | 59 | 234 | 11.3 | 14.8 | 0.00 | 0.00 | 0.00 | 45 | 1012.9 |
| 20260503220029 | 59 | 223 | 10.4 | 15.6 | 0.00 | 0.00 | 0.00 | 46 | 1012.9 |
| 20260503215016 | 59 | 234 | 7.8 | 10.4 | 0.00 | 0.00 | 0.00 | 44 | 1012.8 |
| 20260503214020 | 59 | 230 | 8.7 | 11.3 | 0.00 | 0.00 | 0.00 | 46 | 1012.7 |
| 20260503213024 | 59 | 230 | 7.0 | 8.7 | 0.00 | 0.00 | 0.00 | 46 | 1012.7 |
| 20260503212023 | 59 | 249 | 8.7 | 15.6 | 0.00 | 0.00 | 0.00 | 45 | 1012.7 |
| 20260503211015 | 60 | 224 | 11.3 | 13.9 | 0.00 | 0.00 | 0.00 | 45 | 1012.6 |
| 20260503210039 | 61 | 228 | 7.8 | 9.6 | 0.00 | 0.00 | 0.00 | 44 | 1012.7 |
| 20260503205018 | 61 | 244 | 7.0 | 9.6 | 0.00 | 0.00 | 0.00 | 45 | 1012.7 |
| 20260503204015 | 60 | 225 | 9.6 | 11.3 | 0.00 | 0.00 | 0.00 | 45 | 1012.8 |
| 20260503203032 | 60 | 215 | 9.6 | 16.5 | 0.00 | 0.00 | 0.00 | 46 | 1012.9 |
| 20260503202019 | 60 | 224 | 10.4 | 13.0 | 0.00 | 0.00 | 0.00 | 44 | 1013.0 |
| 20260503201023 | 61 | 226 | 9.6 | 11.3 | 0.00 | 0.00 | 0.00 | 45 | 1013.1 |
| 20260503200047 | 62 | 230 | 5.2 | 9.6 | 0.00 | 0.00 | 0.00 | 39 | 1013.2 |
| 20260503195051 | 63 | 229 | 4.3 | 7.8 | 0.00 | 0.00 | 0.00 | 41 | 1013.4 |
| 20260503194037 | 62 | 240 | 5.2 | 8.7 | 0.00 | 0.00 | 0.00 | 38 | 1013.6 |
| 20260503193022 | 62 | 255 | 5.2 | 7.8 | 0.00 | 0.00 | 0.00 | 39 | 1013.8 |
| 20260503192026 | 63 | 257 | 6.1 | 11.3 | 0.00 | 0.00 | 0.00 | 39 | 1013.9 |
| 20260503191051 | 64 | 253 | 4.3 | 7.8 | 0.00 | 0.00 | 0.00 | 38 | 1014.1 |
| 20260503190016 | 63 | 250 | 7.0 | 10.4 | 0.00 | 0.00 | 0.00 | 38 | 1014.3 |
| 20260503185021 | 61 | 229 | 10.4 | 15.6 | 0.00 | 0.00 | 0.00 | 39 | 1014.3 |
| 20260503184026 | 62 | 232 | 8.7 | 14.8 | 0.00 | 0.00 | 0.00 | 41 | 1014.3 |
| 20260503183030 | 60 | 257 | 7.0 | 12.2 | 0.00 | 0.00 | 0.00 | 38 | 1014.5 |
| 20260503182036 | 61 | 251 | 7.0 | 9.6 | 0.00 | 0.00 | 0.00 | 40 | 1014.6 |
| 20260503181020 | 62 | 242 | 7.0 | 11.3 | 0.00 | 0.00 | 0.00 | 39 | 1014.8 |
| 20260503180025 | 61 | 243 | 7.0 | 9.6 | 0.00 | 0.00 | 0.00 | 39 | 1014.9 |
| 20260503175029 | 60 | 236 | 9.6 | 16.5 | 0.00 | 0.00 | 0.00 | 41 | 1014.9 |
| 20260503174015 | 61 | 233 | 4.3 | 7.8 | 0.00 | 0.00 | 0.00 | 44 | 1014.9 |
| 20260503173020 | 60 | 240 | 7.8 | 11.3 | 0.00 | 0.00 | 0.00 | 41 | 1014.9 |
| 20260503172024 | 59 | 250 | 6.1 | 9.6 | 0.00 | 0.00 | 0.00 | 42 | 1015.1 |
| 20260503171028 | 59 | 268 | 7.0 | 10.4 | 0.00 | 0.00 | 0.00 | 42 | 1015.2 |
| 20260503131018 | 46 | 202 | 5.2 | 7.0 | 0.00 | 0.00 | 0.00 | 60 | 1017.0 |
| 20260503081021 | 34 | 181 | 2.6 | 3.5 | 0.00 | 0.01 | 0.00 | 89 | 1016.6 |
| 20260503072049 | 34 | 185 | 1.7 | 2.6 | 0.00 | 0.01 | 0.00 | 89 | 1016.7 |
| 20260503071049 | 34 | 171 | 1.7 | 2.6 | 0.00 | 0.01 | 0.00 | 89 | 1016.6 |
| 20260503055047 | 34 | 0.0 | 0.0 | 0.00 | 0.01 | 0.00 | 90 | 1017.1 | |
| 20260503054032 | 35 | 0.0 | 0.0 | 0.00 | 0.01 | 0.00 | 89 | 1017.1 | |
| 20260503053039 | 35 | 144 | 0.9 | 1.7 | 0.00 | 0.01 | 0.00 | 89 | 1017.1 |
| 20260503052022 | 35 | 203 | 0.0 | 1.7 | 0.00 | 0.01 | 0.00 | 88 | 1017.2 |
| 20260503051052 | 35 | 0.0 | 0.0 | 0.00 | 0.01 | 0.00 | 88 | 1017.2 | |
| 20260503050031 | 35 | 0.0 | 0.0 | 0.00 | 0.01 | 0.00 | 87 | 1017.3 | |
| 20260503045017 | 36 | 0.0 | 0.0 | 0.00 | 0.01 | 0.00 | 86 | 1017.3 | |
| 20260503044042 | 36 | 0.0 | 0.0 | 0.00 | 0.01 | 0.00 | 86 | 1017.3 | |
| 20260503043027 | 36 | 0.0 | 0.0 | 0.00 | 0.01 | 0.00 | 86 | 1017.3 | |
| 20260503042051 | 37 | 0.0 | 0.0 | 0.00 | 0.01 | 0.00 | 85 | 1017.5 | |
| 20260503041016 | 38 | 0.0 | 0.0 | 0.00 | 0.01 | 0.00 | 84 | 1017.5 | |
| 20260503040021 | 38 | 0.0 | 0.0 | 0.00 | 0.01 | 0.00 | 84 | 1017.5 | |
| 20260503035025 | 38 | 203 | 1.7 | 1.7 | 0.00 | 0.01 | 0.01 | 84 | 1017.6 |
| 20260503034023 | 39 | 208 | 1.7 | 2.6 | 0.00 | 0.01 | 0.01 | 84 | 1017.7 |
| 20260503033015 | 39 | 219 | 0.9 | 2.6 | 0.00 | 0.01 | 0.01 | 83 | 1017.7 |
| 20260503032020 | 39 | 0.0 | 0.0 | 0.00 | 0.01 | 0.01 | 81 | 1017.9 | |
| 20260503031018 | 39 | 158 | 0.0 | 1.7 | 0.00 | 0.01 | 0.01 | 81 | 1017.7 |
| 20260503030037 | 39 | 197 | 2.6 | 2.6 | 0.00 | 0.01 | 0.01 | 83 | 1017.9 |
| 20260503025015 | 39 | 201 | 1.7 | 2.6 | 0.00 | 0.01 | 0.01 | 82 | 1018.0 |
| 20260503024040 | 39 | 203 | 0.9 | 1.7 | 0.00 | 0.01 | 0.01 | 82 | 1018.0 |
| 20260503023024 | 39 | 0.0 | 0.0 | 0.00 | 0.01 | 0.01 | 82 | 1018.0 | |
| 20260503022028 | 40 | 0.0 | 0.0 | 0.00 | 0.01 | 0.01 | 81 | 1018.2 | |
| 20260503021032 | 40 | 0.0 | 0.0 | 0.00 | 0.01 | 0.01 | 79 | 1018.0 | |
| 20260503020019 | 40 | 218 | 0.9 | 1.7 | 0.00 | 0.01 | 0.01 | 80 | 1018.0 |
| 20260503015023 | 40 | 197 | 1.7 | 1.7 | 0.00 | 0.01 | 0.01 | 80 | 1018.0 |
| 20260503014027 | 41 | 0.0 | 0.0 | 0.00 | 0.01 | 0.01 | 78 | 1018.0 | |
| 20260503013032 | 41 | 219 | 0.9 | 1.7 | 0.00 | 0.01 | 0.01 | 77 | 1018.0 |
| 20260503012018 | 41 | 270 | 0.0 | 1.7 | 0.00 | 0.01 | 0.01 | 72 | 1018.0 |
| 20260503011022 | 41 | 0.0 | 0.0 | 0.00 | 0.01 | 0.01 | 72 | 1018.0 | |
| 20260503010027 | 41 | 268 | 0.9 | 1.7 | 0.00 | 0.01 | 0.01 | 70 | 1018.0 |
| 20260503005031 | 41 | 262 | 1.7 | 2.6 | 0.00 | 0.01 | 0.01 | 70 | 1018.0 |
| 20260503004017 | 41 | 260 | 0.9 | 1.7 | 0.00 | 0.01 | 0.01 | 69 | 1017.9 |
| 20260503003022 | 41 | 248 | 0.9 | 1.7 | 0.00 | 0.01 | 0.01 | 69 | 1017.9 |
| 20260503002026 | 41 | 255 | 1.7 | 2.6 | 0.00 | 0.01 | 0.01 | 68 | 1017.9 |